When you browse on this site, cookies collect data to enhance your experience and personalize the content and advertising you see.
Visit our Privacy Policy to learn more. By continuing to use the site, you agree to this use of cookies and data.
  • En España
  • Lista de países
  • Para 7 días
  • Temperatura del agua
  • Mapa Satelital
  • El tiempo en el mapa
  • Informadores
  • user-avatar
    Iniciar sesión

    Tiempo cada hora Kalgoorlie

    Hoy, 18 Julio, Jueves

    Tiempo Temperatura Precipitaciones Viento Presión Humedad
    00:00 +12°C° 0 mm 3 mps 733 mmHg 36%
    01:00 +12°C° 0 mm 2 mps 733 mmHg 38%
    02:00 +12°C° 0 mm 2 mps 732 mmHg 40%
    03:00 +10°C° 0 mm 2 mps 732 mmHg 42%
    04:00 +10°C° 0 mm 2 mps 732 mmHg 45%
    05:00 +9°C° 0 mm 2 mps 732 mmHg 47%
    06:00 +10°C° 0 mm 2 mps 732 mmHg 48%
    07:00 +12°C° 0 mm 1 mps 733 mmHg 49%
    08:00 +13°C° 0 mm 1 mps 733 mmHg 53%
    09:00 +14°C° 0 mm 1 mps 733 mmHg 48%
    10:00 +16°C° 0 mm 1 mps 733 mmHg 42%
    11:00 +16°C° 0 mm 0 mps 733 mmHg 36%
    12:00 +19°C° 0 mm 1 mps 732 mmHg 34%
    13:00 +20°C° 0 mm 1 mps 732 mmHg 31%
    14:00 +21°C° 0 mm 1 mps 731 mmHg 29%
    15:00 +20°C° 0 mm 1 mps 731 mmHg 33%
    16:00 +19°C° 0 mm 1 mps 731 mmHg 36%
    17:00 +18°C° 0 mm 1 mps 730 mmHg 40%
    18:00 +16°C° 0 mm 1 mps 731 mmHg 39%
    19:00 +16°C° 0 mm 2 mps 731 mmHg 38%
    20:00 +15°C° 0 mm 2 mps 731 mmHg 37%
    21:00 +14°C° 0 mm 3 mps 731 mmHg 37%
    22:00 +13°C° 0 mm 3 mps 731 mmHg 37%
    23:00 +13°C° 0 mm 3 mps 730 mmHg 37%

    Mañana, 19 Julio, Viernes

    Tiempo Temperatura Precipitaciones Viento Presión Humedad
    00:00 +12°C° 0 mm 3 mps 730 mmHg 36%
    01:00 +12°C° 0 mm 3 mps 729 mmHg 35%
    02:00 +12°C° 0 mm 3 mps 729 mmHg 34%
    03:00 +11°C° 0 mm 4 mps 729 mmHg 35%
    04:00 +11°C° 0 mm 4 mps 728 mmHg 35%
    05:00 +10°C° 0 mm 4 mps 728 mmHg 35%
    06:00 +11°C° 0 mm 4 mps 728 mmHg 35%
    07:00 +10°C° 0 mm 5 mps 728 mmHg 35%
    08:00 +10°C° 0 mm 5 mps 728 mmHg 35%
    09:00 +14°C° 0 mm 7 mps 728 mmHg 30%
    10:00 +17°C° 0 mm 8 mps 727 mmHg 25%
    11:00 +19°C° 0 mm 9 mps 727 mmHg 20%
    12:00 +21°C° 0 mm 10 mps 726 mmHg 19%
    13:00 +22°C° 0 mm 10 mps 725 mmHg 18%
    14:00 +23°C° 0 mm 11 mps 724 mmHg 16%
    15:00 +22°C° 0 mm 10 mps 724 mmHg 18%
    16:00 +21°C° 0 mm 9 mps 724 mmHg 20%
    17:00 +20°C° 0 mm 7 mps 724 mmHg 22%
    18:00 +18°C° 0 mm 7 mps 723 mmHg 25%
    19:00 +16°C° 0 mm 7 mps 723 mmHg 27%
    20:00 +15°C° 0 mm 7 mps 723 mmHg 29%
    21:00 +15°C° 0 mm 8 mps 723 mmHg 36%
    22:00 +13°C° 0 mm 9 mps 723 mmHg 44%
    23:00 +13°C° 0 mm 10 mps 723 mmHg 51%

    Pasado mañana, 20 Julio, Sábado

    Tiempo Temperatura Precipitaciones Viento Presión Humedad
    00:00 +12°C° 0.3 mm 10 mps 724 mmHg 56%
    01:00 +12°C° 0.3 mm 11 mps 724 mmHg 62%
    02:00 +11°C° 0.3 mm 11 mps 725 mmHg 67%
    03:00 +9°C° 0 mm 10 mps 725 mmHg 68%
    04:00 +8°C° 0 mm 9 mps 726 mmHg 70%
    05:00 +8°C° 0 mm 7 mps 726 mmHg 71%
    06:00 +7°C° 0 mm 8 mps 727 mmHg 71%
    07:00 +7°C° 0 mm 8 mps 728 mmHg 72%
    08:00 +6°C° 0 mm 8 mps 729 mmHg 72%
    09:00 +9°C° 0 mm 8 mps 729 mmHg 63%
    10:00 +10°C° 0 mm 9 mps 730 mmHg 55%
    11:00 +11°C° 0 mm 9 mps 730 mmHg 46%
    12:00 +12°C° 0 mm 9 mps 730 mmHg 44%
    13:00 +12°C° 0 mm 8 mps 730 mmHg 41%
    14:00 +13°C° 0 mm 8 mps 729 mmHg 38%
    15:00 +12°C° 0 mm 7 mps 730 mmHg 40%
    16:00 +13°C° 0 mm 6 mps 730 mmHg 42%
    17:00 +12°C° 0 mm 5 mps 731 mmHg 45%
    18:00 +10°C° 0 mm 5 mps 731 mmHg 49%
    19:00 +9°C° 0 mm 5 mps 732 mmHg 53%
    20:00 +8°C° 0 mm 4 mps 732 mmHg 58%
    21:00 +8°C° 0 mm 4 mps 732 mmHg 60%
    22:00 +8°C° 0 mm 3 mps 732 mmHg 63%
    23:00 +8°C° 0 mm 3 mps 732 mmHg 66%

    21 Julio, Domingo

    Tiempo Temperatura Precipitaciones Viento Presión Humedad
    00:00 +8°C° 0 mm 3 mps 732 mmHg 68%
    01:00 +7°C° 0 mm 3 mps 732 mmHg 69%
    02:00 +7°C° 0 mm 3 mps 732 mmHg 71%
    03:00 +7°C° 0 mm 3 mps 732 mmHg 75%
    04:00 +5°C° 0 mm 4 mps 732 mmHg 79%
    05:00 +5°C° 0 mm 4 mps 732 mmHg 82%
    06:00 +6°C° 0 mm 4 mps 732 mmHg 81%
    07:00 +6°C° 0 mm 5 mps 732 mmHg 80%
    08:00 +6°C° 0 mm 5 mps 732 mmHg 78%
    09:00 +8°C° 0 mm 6 mps 732 mmHg 70%
    10:00 +10°C° 0 mm 6 mps 732 mmHg 62%
    11:00 +14°C° 0 mm 7 mps 731 mmHg 53%
    12:00 +14°C° 0 mm 7 mps 731 mmHg 52%
    13:00 +15°C° 0 mm 7 mps 730 mmHg 51%
    14:00 +15°C° 0 mm 7 mps 729 mmHg 49%
    15:00 +15°C° 0 mm 7 mps 729 mmHg 51%
    16:00 +15°C° 0 mm 6 mps 729 mmHg 52%
    17:00 +15°C° 0 mm 6 mps 729 mmHg 53%
    18:00 +14°C° 0 mm 6 mps 729 mmHg 55%
    19:00 +14°C° 0 mm 6 mps 730 mmHg 56%
    20:00 +14°C° 0 mm 6 mps 730 mmHg 57%
    21:00 +13°C° 0 mm 6 mps 730 mmHg 63%
    22:00 +11°C° 0 mm 6 mps 730 mmHg 69%
    23:00 +10°C° 0 mm 6 mps 729 mmHg 75%

    22 Julio, Lunes

    Tiempo Temperatura Precipitaciones Viento Presión Humedad
    00:00 +10°C° 0 mm 6 mps 729 mmHg 79%
    01:00 +9°C° 0 mm 6 mps 729 mmHg 84%
    02:00 +9°C° 0 mm 6 mps 729 mmHg 88%
    03:00 +9°C° 0 mm 5 mps 729 mmHg 90%
    04:00 +8°C° 0 mm 5 mps 729 mmHg 91%
    05:00 +8°C° 0 mm 4 mps 729 mmHg 93%
    06:00 +8°C° 0 mm 5 mps 730 mmHg 91%
    07:00 +9°C° 0 mm 5 mps 730 mmHg 89%
    08:00 +9°C° 0 mm 6 mps 731 mmHg 86%
    09:00 +10°C° 0 mm 6 mps 731 mmHg 79%
    10:00 +11°C° 0 mm 7 mps 731 mmHg 72%
    11:00 +12°C° 0 mm 7 mps 731 mmHg 64%
    12:00 +12°C° 0 mm 7 mps 731 mmHg 57%
    13:00 +14°C° 0 mm 6 mps 731 mmHg 50%
    14:00 +15°C° 0 mm 6 mps 731 mmHg 43%
    15:00 +14°C° 0 mm 5 mps 731 mmHg 44%
    16:00 +14°C° 0 mm 5 mps 731 mmHg 45%
    17:00 +13°C° 0 mm 4 mps 732 mmHg 45%
    18:00 +12°C° 0 mm 4 mps 732 mmHg 49%
    19:00 +11°C° 0 mm 4 mps 733 mmHg 52%
    20:00 +10°C° 0 mm 4 mps 733 mmHg 56%
    21:00 +8°C° 0 mm 4 mps 734 mmHg 58%
    22:00 +7°C° 0 mm 4 mps 734 mmHg 61%
    23:00 +7°C° 0 mm 4 mps 734 mmHg 64%

    23 Julio, Martes

    Tiempo Temperatura Precipitaciones Viento Presión Humedad
    00:00 +7°C° 0 mm 3 mps 734 mmHg 67%
    01:00 +7°C° 0 mm 3 mps 734 mmHg 69%
    02:00 +5°C° 0 mm 3 mps 735 mmHg 72%
    03:00 +6°C° 0 mm 2 mps 735 mmHg 74%
    04:00 +5°C° 0 mm 2 mps 735 mmHg 76%
    05:00 +6°C° 0 mm 1 mps 735 mmHg 78%
    06:00 +6°C° 0 mm 1 mps 736 mmHg 75%
    07:00 +7°C° 0 mm 1 mps 736 mmHg 72%
    08:00 +7°C° 0 mm 1 mps 737 mmHg 70%
    09:00 +9°C° 0 mm 1 mps 737 mmHg 64%
    10:00 +10°C° 0 mm 1 mps 737 mmHg 58%
    11:00 +10°C° 0 mm 0 mps 737 mmHg 52%
    12:00 +11°C° 0 mm 0 mps 737 mmHg 49%
    13:00 +12°C° 0 mm 0 mps 736 mmHg 46%
    14:00 +13°C° 0 mm 0 mps 736 mmHg 43%
    15:00 +13°C° 0 mm 0 mps 736 mmHg 45%
    16:00 +12°C° 0 mm 0 mps 736 mmHg 47%
    17:00 +13°C° 0 mm 1 mps 736 mmHg 49%
    18:00 +12°C° 0 mm 1 mps 737 mmHg 51%
    19:00 +10°C° 0 mm 0 mps 737 mmHg 54%
    20:00 +9°C° 0 mm 0 mps 737 mmHg 57%
    21:00 +9°C° 0 mm 0 mps 737 mmHg 57%
    22:00 +10°C° 0 mm 1 mps 737 mmHg 58%
    23:00 +9°C° 0 mm 1 mps 737 mmHg 59%
    Mostrar más